STARLINK-11269, 60995

Orbit data source: Space-Track

STARLINK-11269, 60995 is a payload satellite owned by SpaceX/Seattle (US) in LEO that was launched on Thu, 05 Sep 2024 UTC via an FALCON 9 launch vehicle from the Air Force Eastern Test Range (AFETR). Payloads include a variety of satellites, spacecraft, and rockets equipped with specific instruments for various scientific and technological missions. These include communications satellites like Starlink; space stations such as the ISS; scientific satellites like the Hubble; Earth observation satellites from companies like Planet Labs, Umbra, and HawkEye 360; GPS; miniature CubeSats for education and research; and military/defense satellites.

Loading next visibility...
STARLINK-11269 details
Identifier
60995, 2024-158F
Orbit
LEO
Last TLE update13 hours ago
Origin
Flag of USSpaceX/Seattle (US)
ManufacturerSpaceX/Seattle
MissionOperational spacecraft
Bus & MotorSTARLINK V2M, Unknown motor
Mass730 kg wet, ~700 kg dry
Launch date (UTC)
2024-09-05 (3 months ago)
Launch vehicle
FALCON 9
Launch site
Air Force Eastern Test Range (AFETR)
Object type
Payload
Rocket body
Debris
Shape & HBRUnknown
Radar Cross SectionLarge (>1 m²)

Expand to show TLE details & history

TLE from 13 hours ago
0 STARLINK-11269
1 60995U 24158F   24336.89197009 -.00003017  00000-0 -20052-4 0  9996
2 60995  53.1594  42.9331 0000714 151.2887 208.8170 15.69719827 14910
Epoch: 2024-12-01T21:24Z
Definitive object data (Epoch: 2024-12-01T21:24:26.215Z)
Latitude-0.00007°
Longitude10.60016°
Altitude361.035 km
Speed7.694 km/s
True Right ascension02h 51m 43s
True Declination0° 00' 00"
Sunlit
Object was in full shadow at TLE epoch
Visualization TLE readout
Latitude-21.26938°
Longitude-155.23345°
Altitude365.404 km
Speed7.69 km/s
Apparent Right ascension17h 43m 53s
Apparent Declination-34° 49' 06"
Sunlit
Object is in daylight
Visualization observer readout
Local Sidereal Time08:17:05
Azimuth92.758° ESE
Elevation-59.377°
Doppler factor1
Orbital elements
Apogee altitude360.441 km
Perigee altitude359.478 km
Semi-major axis6,738.096 km
Eccentricity0.0000714
Inclination53.1594°
RAAN42.9331°
Arg. of periapsis151.2887°
True anomaly208.81306°
Mean anomaly208.817°
Eccentric anomaly208.81503°
Mean motion3.92408 °/min
BSTAR-0.000020052
Orbital period91.74 mins
Loading maneuver chart data...
Loading historical data...
Loading historical data...
Loading historical data...
Loading historical data...
Loading historical data...
Loading historical data...
Loading historical data...

STARLINK-11269 Visibility forecast

Observer location: undefined°, undefined

Span
Click to sort rows by Start time (UTC) header in descending order
Start Az.
Max El. time (UTC)
Max El. Az.
Max El.
End time (UTC)
End Az.
4 mins2024-12-03 07:13:30.981Z237.036° WSW2024-12-03 07:15:30.981Z13.735° NNE42.65°2024-12-03 07:17:30.981Z45.897° ENE
|